DELTA 1 DEB, 42080

Orbit data source: Space-Track

DELTA 1 DEB, 42080 is space debris in SSO originally from a launch on Sun, 15 Dec 1968 UTC launched from the Air Force Western Test Range (AFWTR). Debris objects in space refer to the collection of defunct objects orbiting the Earth. Examples of debris include non-operational satellites, rocket bodies, and fragments generated from explosions, collisions, or faulty payload assembly.

Loading next visibility...
Identifier
42080, 1968-114G
Orbit
SSO
Last TLE update
3 days ago
Origin
Manufacturer
Aerojet
Mission
Spacecraft
Bus & Motor
Unknown
Mass
Unknown
Launch date (UTC)
1968-12-15 (57 years ago)
Launch vehicle
Unknown
Launch site
Air Force Western Test Range (AFWTR)
Object type
Payload
Rocket body
Debris
Shape & HBR
Unknown
Radar Cross Section
Small (<0.1 m²)

Expand to show TLE details & history

TLE from 3 days ago
0 DELTA 1 DEB
1 42080U 68114G   25179.12104477 -.00000028  00000-0  11556-3 0  9996
2 42080 101.7925 117.4605 0067634 154.8564 225.5772 12.39291861524759
Epoch: 2025-06-28T02:54Z
TLE epoch observation values (Epoch: 2025-06-28T02:54:18.268Z)
Latitude
19.44871°
Longitude
153.21314°
Altitude
1,549.263 km
Speed
7.077 km/s
True Right ascension
07h 33m 00s
True Declination
19° 21' 06"
Sunlit
Object was in daylight at epoch
Visualization orbit readout
Latitude
-22.58221°
Longitude
165.56867°
Altitude
1,570.52 km
Speed
7.058 km/s
Apparent Right ascension
08h 55m 17s
Apparent Declination
-30° 31' 53"
Sunlit
Object is in daylight
Visualization observer readout
Local Sidereal Time
21:44:45
Azimuth
50.84° ENE
Elevation
-76.237°
Doppler factor
1
Orbital elements
Apogee altitude
1,560.501 km
Perigee altitude
1,453.838 km
Semi-major axis
7,885.307 km
Eccentricity
0.00676
Inclination
101.7925°
RAAN
117.4605°
Arg. of periapsis
154.8564°
True anomaly
Unknown
Mean anomaly
225.5772°
Eccentric anomaly
Unknown
Mean motion
3.09967 °/min
Orbital period
116.14 mins
BSTAR
0.00011556
Loading maneuver chart data...
Loading SW <> Apogee altitude chart data...
Loading historical data...
Loading historical data...
Loading historical data...
Loading historical data...
Loading historical data...
Loading historical data...
Loading historical data...

DELTA 1 DEB Visibility forecast

Observer location: undefined°, undefined°

Span
Click to sort rows by Start time (UTC) header in descending order
Start Az.
Max El. time (UTC)
Max El. Az.
Max El.
End time (UTC)
End Az.
10 mins2025-07-01 10:50:22.025Z348.861° N2025-07-01 10:55:22.025Z308.674° NW20.176°2025-07-01 11:00:22.025Z267.785° W
12 mins2025-07-01 18:09:22.025Z103.116° ESE2025-07-01 18:14:22.025Z59.027° ENE26.297°2025-07-01 18:21:22.025Z1.912° NNE
16 mins2025-07-01 20:00:22.025Z173.947° S2025-07-01 20:08:22.025Z270.555° WNW42.61°2025-07-01 20:16:22.025Z337.511° N
14 mins2025-07-02 08:11:22.025Z31.64° NE2025-07-02 08:18:22.025Z107.627° ESE37.022°2025-07-02 08:25:22.025Z173.112° S
|